Location: Asbacherhof
(48.8543°N, 10.7903°E)
Time: 21:56:22
(UTC+00:00)

USA 308 - Pass Details

Date: 26 May 2022
Orbit: 549 x 558 km, 54.0° (Epoch: 14 June)

Event Time Altitude Azimuth Distance (km) Brightness Sun altitude
Exits shadow 02:16:37 - 268° (W) 2,396 5.7 -9.1°
Reaches altitude 10° 02:18:03 10° 272° (W) 1,845 5.1 -8.9°
Maximum altitude 02:22:07 47° 347° (NNW) 747 3.8 -8.5°
Drops below altitude 10° 02:26:18 10° 63° (ENE) 1,891 7.0 -8.0°
Sets 02:28:31 0° 69° (ENE) 2,752 7.8 -7.7°
